User: anonymous   Login
Location: ???????
(55.4362°N, 38.1183°E)
Time: 05:38:14
(UTC+00:00)
Language:

Cosmos 1892 - Orbit

View from above orbital plane
View from above orbital plane
View from above satellite
View from above satellite

Ground track
Ground track

The orbit data is extracted from the following two-line orbital elements,

1 18421U 87088A   21260.51431453  .00001123  00000-0  53863-4 0  9990
2 18421  82.5029 180.9817 0013096 280.1727  79.8029 15.17824616853860
Epoch (UTC): 17 September 2021 12:20:36
Eccentricity: 0.0013096
inclination: 82.5029°
perigee height: 503 km
apogee height: 521 km
right ascension of ascending node: 180.9817°
argument of perigee: 280.1727°
revolutions per day: 15.17824616
mean anomaly at epoch: 79.8029°
orbit number at epoch: 85386

The dashed part of the orbit path shows where the satellite is in the earth's shadow,  

DLR